sat.trackr.live / text

‹ back to catalog

QIANFAN-53

NORAD 62254 · 2024-232T

PAYLOAD ACTIVE UNKNOWN

§ Identity

Operator
Country
PRC
Launch date
2024-12-05
Launch site
TAISC
Launch vehicle
Mass (kg)
RCS (m²)

External: N2YO · Heavens-Above · Gunter

§ Orbital elements

Epoch: 2026-09-22T21:18:53.467776Z

Period
106.59 min
Inclination
89.0169°
Eccentricity
0.0016141
Mean motion
13.51028197 rev/d
Perigee alt
1,056.5 km
Apogee alt
1,080.5 km
Semi-major
7,446.6 km
B*
1.2903e-4
RAAN
12.7144°
Arg perigee
94.2419°
Mean anomaly
266.0577°
Rev number
10,627

§ Raw data

QIANFAN-531 62254U 24232T   26265.88811884  .00000096  00000+0  12903-3 0  99912 62254  89.0169  12.7144 0016141  94.2419 266.0577 13.51028197106271

JSON: /api/v1/satellites/62254 · /tle

For live sub-satellite position, see the globe view (requires WebGL).

§ Visibility from observer

Set your observer location to see the next 7 days of passes ≥ 10°. The values pass through the URL so the page stays shareable.

No JS? Fill the form by hand. The geolocation button needs JavaScript.